Flint, MI

10:07 PM EDT on March 30, 2017 (GMT -0400)
Bishop International

Weather History for KFNT - August, 2013

Change the Weather History Date:

Friday, August 2, 2013

  Actual Average Record
Temperature  
Mean Temperature 66 °F 70 °F  
Max Temperature 77 °F 81 °F 97 °F (1955)
Min Temperature 54 °F 59 °F 42 °F (1927)
Degree Days  
Heating Degree Days 0 1  
Month to date heating degree days 0 1  
Since 1 June heating degree days 50 82  
Since 1 July heating degree days 9 16  
Cooling Degree Days 1 6  
Month to date cooling degree days 6 12  
Year to date cooling degree days 508 343  
Since 1 June cooling degree days 429 311  
Growing Degree Days 16 (Base 50)    
Moisture  
Dew Point 58 °F    
Average Humidity 74    
Maximum Humidity 93    
Minimum Humidity 54    
Precipitation  
Precipitation T in 0.10 in 1.50 in (1934)
Month to date precipitation 0.08 0.21  
Year to date precipitation 23.09 17.59  
Snow  
Snow 0.00 in 0.00 in 0.00 in ()
Month to date snowfall 0.0 0.0  
Since 1 June snowfall 0.0 0.0  
Since 1 July snowfall 0.0 0.0  
Snow Depth 0.00 in    
Sea Level Pressure  
Sea Level Pressure 29.89 in    
Wind  
Wind Speed 8 mph (WSW)    
Max Wind Speed 18 mph    
Max Gust Speed 25 mph    
Visibility 10 miles    
Events      
T = Trace of Precipitation, MM = Missing Value Source: NWS Daily Summary

Daily Weather History Graph

Daily Weather History Graph

Search for Another Location

Airport or City:

Trip Planner

Search our weather history database for the weather conditions in past years. The results will help you decide how hot, cold, wet, or windy it might be!

Date:

Astronomy

Aug. 02, 2013 Rise Set
Actual Time 6:27 AM EDT 8:54 PM EDT
Civil Twilight 5:55 AM EDT 9:26 PM EDT
Nautical Twilight 5:15 AM EDT 10:06 PM EDT
Astronomical Twilight 4:30 AM EDT 10:50 PM EDT
Moon 2:46 AM EDT (8/2) 5:52 PM EDT (8/2)
Length of Visible Light 15h 31m
Length of Day
14h 27m
Waning Crescent, 16% of the Moon is Illuminated
Aug 2
Waning Crescent
Aug 6
New
Aug 14
First Quarter
Aug 20
Full
Aug 28
Last Quarter

Hourly Weather History & Observations

Time (EDT) Temp. Dew Point Humidity Pressure Visibility Wind Dir Wind Speed Gust Speed Precip Events Conditions
12:53 AM 60.1 °F 53.1 °F 78% 29.92 in 10.0 mi WSW 4.6 mph - N/A   Clear
1:53 AM 59.0 °F 53.1 °F 81% 29.91 in 10.0 mi West 3.5 mph - N/A   Clear
2:53 AM 57.9 °F 53.1 °F 84% 29.91 in 10.0 mi WSW 3.5 mph - N/A   Clear
3:53 AM 57.0 °F 52.0 °F 83% 29.90 in 10.0 mi SW 3.5 mph - N/A   Clear
4:53 AM 55.9 °F 52.0 °F 87% 29.91 in 10.0 mi SW 3.5 mph - N/A   Clear
5:53 AM 54.0 °F 51.1 °F 90% 29.91 in 10.0 mi Calm Calm - N/A   Scattered Clouds
6:53 AM 57.0 °F 53.1 °F 87% 29.93 in 10.0 mi SW 4.6 mph - N/A   Mostly Cloudy
7:53 AM 62.1 °F 55.0 °F 78% 29.91 in 10.0 mi SW 5.8 mph - N/A   Partly Cloudy
8:53 AM 63.0 °F 54.0 °F 72% 29.91 in 10.0 mi SSW 5.8 mph - N/A   Partly Cloudy
9:53 AM 68.0 °F 57.0 °F 68% 29.90 in 10.0 mi SW 6.9 mph - 0.00 in   Scattered Clouds
10:53 AM 71.1 °F 57.9 °F 63% 29.91 in 10.0 mi WSW 11.5 mph 20.7 mph N/A   Mostly Cloudy
11:53 AM 73.9 °F 59.0 °F 59% 29.89 in 10.0 mi WSW 10.4 mph - N/A   Clear
12:53 PM 75.0 °F 60.1 °F 60% 29.89 in 10.0 mi WSW 12.7 mph 19.6 mph N/A   Mostly Cloudy
1:53 PM 77.0 °F 59.0 °F 54% 29.87 in 10.0 mi WSW 9.2 mph - N/A   Mostly Cloudy
2:53 PM 72.0 °F 60.1 °F 66% 29.87 in 10.0 mi SW 13.8 mph - N/A   Overcast
3:17 PM 73.4 °F 60.8 °F 65% 29.87 in 10.0 mi WSW 13.8 mph - N/A   Overcast
3:29 PM 71.6 °F 60.8 °F 69% 29.87 in - SW 15.0 mph 19.6 mph N/A   Overcast
3:53 PM 72.0 °F 60.1 °F 66% 29.86 in 10.0 mi SW 17.3 mph 23.0 mph N/A   Overcast
4:53 PM 72.0 °F 61.0 °F 68% 29.85 in 10.0 mi SW 13.8 mph - N/A   Overcast
5:53 PM 72.0 °F 62.1 °F 71% 29.84 in 10.0 mi SW 10.4 mph - N/A   Overcast
6:35 PM 71.6 °F 62.6 °F 73% 29.85 in 10.0 mi SW 9.2 mph - N/A   Mostly Cloudy
6:53 PM 72.0 °F 62.1 °F 71% 29.85 in 10.0 mi SW 10.4 mph - N/A   Overcast
7:53 PM 71.1 °F 62.1 °F 73% 29.85 in 10.0 mi SW 6.9 mph - N/A   Clear
8:53 PM 69.1 °F 63.0 °F 81% 29.87 in 10.0 mi SW 6.9 mph - N/A   Clear
9:53 PM 68.0 °F 63.0 °F 84% 29.89 in 10.0 mi WSW 6.9 mph - N/A   Clear
10:53 PM 69.1 °F 63.0 °F 81% 29.89 in 10.0 mi West 8.1 mph - N/A   Clear
11:53 PM 69.1 °F 62.1 °F 78% 29.90 in 10.0 mi NW 9.2 mph - N/A   Clear